GW3780 Weather Reports


Display with metric or nautical units.
time (UTC)temp
F
wind
direction
speed
MPH
gust
MPH
rain 1hr
in
rain 24hr
in
rain mn
in
humidity
%
barometer
mb
20260905022642 72 325 0.0 1.0 0.00 0.37 0.37 99 1015.2
20260905022138 72 321 1.0 1.0 0.00 0.37 0.37 99 1015.2
20260905021632 72 321 2.0 2.0 0.00 0.37 0.37 99 1015.3
20260905021128 72 337 1.0 2.0 0.00 0.37 0.37 99 1015.5
20260905020627 72 226 0.0 1.0 0.00 0.37 0.37 99 1015.1
20260905020123 72 208 0.0 2.0 0.00 0.37 0.37 99 1015.2
20260905015621 73 239 1.0 3.0 0.00 0.37 0.37 99 1014.9
20260905015115 73 256 1.0 2.0 0.00 0.37 0.37 99 1014.9
20260905014609 72 299 0.0 1.0 0.00 0.37 0.37 99 1015.1
20260905014105 72 195 0.0 2.0 0.00 0.37 0.37 99 1015.0
20260905013602 72 293 0.0 2.0 0.00 0.37 0.37 99 1014.9
20260905013057 72 292 0.0 2.0 0.00 0.37 0.37 99 1014.9
20260905012556 72 237 0.0 2.0 0.00 0.37 0.37 99 1014.9
20260905012054 72 242 0.0 1.0 0.00 0.37 0.37 99 1014.5
20260905011549 72 229 0.0 0.0 0.00 0.37 0.37 99 1014.4
20260905011044 72 310 1.0 1.0 0.00 0.37 0.37 99 1014.4
20260905010539 72 233 0.0 2.0 0.00 0.37 0.37 99 1014.1
20260905010035 72 226 1.0 1.0 0.00 0.37 0.37 99 1014.2
20260905005530 72 324 1.0 2.0 0.00 0.37 0.37 99 1013.9
20260905005020 72 317 0.0 2.0 0.00 0.37 0.37 99 1014.1
20260905004515 72 304 2.0 2.0 0.00 0.37 0.37 99 1014.1
20260905004009 72 305 0.0 1.0 0.00 0.37 0.37 99 1014.2
20260905003505 72 321 0.0 2.0 0.00 0.37 0.37 99 1013.9
20260905003001 73 285 2.0 2.0 0.00 0.37 0.37 99 1013.5
20260905002456 72 306 0.0 2.0 0.00 0.37 0.37 99 1014.2
20260905001950 72 327 0.0 2.0 0.00 0.37 0.37 99 1014.3
20260905001445 72 331 1.0 2.0 0.00 0.37 0.37 99 1013.8
20260905000939 72 292 0.0 2.0 0.00 0.37 0.37 99 1013.6
20260905000435 72 318 2.0 2.0 0.00 0.37 0.37 99 1013.7
20260904235930 72 323 0.0 2.0 0.00 0.37 0.37 99 1013.6
20260904235426 72 345 0.0 2.0 0.00 0.37 0.37 99 1013.6
20260904234925 72 314 1.0 2.0 0.00 0.37 0.37 99 1013.8
20260904234420 72 308 2.0 3.0 0.00 0.37 0.37 99 1013.7
20260904233916 72 326 1.0 2.0 0.00 0.37 0.37 99 1013.7
20260904233411 72 250 1.0 2.0 0.00 0.37 0.37 99 1013.7
20260904232908 72 227 2.0 3.0 0.02 0.37 0.37 99 1013.8
20260904232404 72 263 0.0 2.0 0.02 0.37 0.37 99 1014.4
20260904231859 72 317 0.0 2.0 0.14 0.37 0.37 99 1015.0
20260904231355 72 311 0.0 2.0 0.14 0.37 0.37 99 1014.8
20260904230850 72 211 1.0 2.0 0.00 0.35 0.35 99 1015.2
20260904230349 72 322 0.0 2.0 0.00 0.35 0.35 99 1015.0
20260904225844 73 283 2.0 2.0 0.00 0.35 0.35 99 1015.2
20260904225342 73 321 2.0 2.0 0.02 0.35 0.35 99 1014.9
20260904224841 73 307 2.0 2.0 0.07 0.35 0.35 99 1014.4
20260904224337 73 259 1.0 3.0 0.02 0.34 0.34 99 1014.5
20260904223837 73 185 0.0 2.0 0.00 0.34 0.34 99 1015.3
20260904223337 73 325 0.0 3.0 0.00 0.34 0.34 99 1015.1
20260904222833 73 326 0.0 2.0 0.00 0.34 0.34 99 1015.5
20260904222328 73 264 0.0 2.0 0.00 0.34 0.34 99 1015.5
20260904221828 73 339 0.0 2.0 0.00 0.34 0.34 98 1015.4
20260904221328 73 201 0.0 2.0 0.02 0.34 0.34 98 1015.1
20260904220823 73 314 1.0 3.0 0.61 0.34 0.34 99 1015.6
20260904220322 73 340 2.0 3.0 1.32 0.32 0.32 99 1015.7
20260904215818 73 311 0.0 3.0 1.18 0.26 0.26 98 1015.6
20260904215313 74 306 2.0 3.0 0.47 0.10 0.10 97 1016.4
20260904214809 75 298 2.0 2.0 0.24 0.06 0.06 95 1015.4
20260904214304 75 315 2.0 2.0 0.02 0.02 0.02 92 1014.6
20260904213802 74 292 2.0 3.0 0.00 0.02 0.02 92 1014.3
20260904213258 73 334 1.0 4.0 0.09 0.02 0.02 91 1014.6
20260904212753 74 278 2.0 5.0 0.09 0.02 0.02 92 1015.2
20260904212248 78 314 4.0 12.0 0.00 0.00 0.00 82 1015.2
20260904211743 81 134 3.0 10.0 0.00 0.00 0.00 78 1015.4
20260904211238 85 296 2.0 4.0 0.00 0.00 0.00 74 1014.9
20260904210733 89 298 3.0 5.0 0.00 0.00 0.00 67 1014.5
20260904210227 91 321 1.0 2.0 0.00 0.00 0.00 65 1013.3
20260904205724 92 305 2.0 2.0 0.00 0.00 0.00 62 1013.3
20260904205220 92 313 2.0 2.0 0.00 0.00 0.00 64 1013.5
20260904204716 93 314 2.0 2.0 0.00 0.00 0.00 61 1013.1
20260904204212 93 311 0.0 1.0 0.00 0.00 0.00 58 1013.2
20260904203707 94 224 0.0 1.0 0.00 0.00 0.00 59 1013.3
20260904203204 93 333 0.0 2.0 0.00 0.00 0.00 60 1012.8
20260904202659 93 213 0.0 2.0 0.00 0.00 0.00 60 1012.9
20260904202155 93 302 2.0 2.0 0.00 0.00 0.00 63 1013.1
20260904201650 93 0 0.0 2.0 0.00 0.00 0.00 62 1012.8
20260904201144 93 315 0.0 1.0 0.00 0.00 0.00 64 1012.8
20260904200638 92 302 2.0 2.0 0.00 0.00 0.00 62 1012.9
20260904200134 92 304 0.0 2.0 0.00 0.00 0.00 63 1013.0
20260904195632 92 293 1.0 2.0 0.00 0.00 0.00 62 1013.5
20260904195131 92 294 1.0 2.0 0.00 0.00 0.00 63 1013.6
20260904194626 92 309 2.0 2.0 0.00 0.00 0.00 63 1013.6
20260904194120 93 301 2.0 2.0 0.00 0.00 0.00 62 1013.5
20260904193615 94 302 0.0 2.0 0.00 0.00 0.00 58 1013.7
20260904193112 95 310 1.0 2.0 0.00 0.00 0.00 58 1013.9
20260904192612 95 279 1.0 2.0 0.00 0.00 0.00 58 1013.7
20260904192108 96 242 3.0 3.0 0.00 0.00 0.00 57 1013.9
20260904191604 96 304 1.0 2.0 0.00 0.00 0.00 57 1013.9
20260904191100 95 304 0.0 2.0 0.00 0.00 0.00 57 1013.9
20260904190555 95 339 2.0 3.0 0.00 0.00 0.00 57 1014.0
20260904190052 95 297 0.0 2.0 0.00 0.00 0.00 58 1013.6
20260904185548 96 323 2.0 4.0 0.00 0.00 0.00 57 1014.0
20260904185042 96 341 1.0 2.0 0.00 0.00 0.00 58 1014.5
20260904184537 96 311 0.0 2.0 0.00 0.00 0.00 57 1014.4
20260904184032 95 329 0.0 2.0 0.00 0.00 0.00 58 1014.6
20260904183527 95 300 3.0 3.0 0.00 0.00 0.00 58 1014.6
20260904183022 96 308 2.0 3.0 0.00 0.00 0.00 56 1014.6
20260904182518 96 223 2.0 2.0 0.00 0.00 0.00 57 1014.8
20260904182017 96 217 0.0 2.0 0.00 0.00 0.00 57 1014.7
20260904181513 96 290 0.0 2.0 0.00 0.00 0.00 57 1014.9
20260904181008 95 141 0.0 2.0 0.00 0.00 0.00 58 1015.0
20260904180507 95 281 2.0 2.0 0.00 0.00 0.00 57 1014.9
20260904180003 95 330 3.0 4.0 0.00 0.00 0.00 57 1015.1
20260904175456 96 322 3.0 4.0 0.00 0.00 0.00 59 1015.3
20260904174955 95 278 0.0 4.0 0.00 0.00 0.00 57 1015.2
20260904174450 95 303 2.0 2.0 0.00 0.00 0.00 56 1015.4
20260904173948 94 308 0.0 3.0 0.00 0.00 0.00 59 1015.6
20260904173447 94 306 0.0 3.0 0.00 0.00 0.00 60 1015.5
20260904172942 94 309 0.0 2.0 0.00 0.00 0.00 59 1015.4
20260904172438 94 323 0.0 1.0 0.00 0.00 0.00 61 1015.5
20260904171932 93 324 1.0 3.0 0.00 0.00 0.00 61 1015.5
20260904171428 93 322 1.0 2.0 0.00 0.00 0.00 61 1015.4
20260904170924 93 350 2.0 2.0 0.00 0.00 0.00 61 1015.3
20260904170419 92 276 0.0 2.0 0.00 0.00 0.00 61 1015.3
20260904165914 93 290 1.0 2.0 0.00 0.00 0.00 62 1015.6
20260904165413 92 299 2.0 3.0 0.00 0.00 0.00 62 1015.5
20260904164913 92 300 2.0 3.0 0.00 0.00 0.00 63 1015.6
20260904164413 92 180 0.0 3.0 0.00 0.00 0.00 64 1015.4
20260904163909 92 288 1.0 2.0 0.00 0.00 0.00 65 1015.5
20260904163409 92 306 2.0 3.0 0.00 0.00 0.00 64 1015.6
20260904162908 91 57 0.0 2.0 0.00 0.00 0.00 64 1015.7
20260904162403 91 298 0.0 4.0 0.00 0.00 0.00 64 1015.9
20260904161853 91 294 2.0 7.0 0.00 0.00 0.00 65 1015.7
20260904161348 91 328 2.0 2.0 0.00 0.00 0.00 63 1015.9
20260904160844 92 346 0.0 2.0 0.00 0.00 0.00 63 1016.1
20260904160338 91 296 0.0 2.0 0.00 0.00 0.00 64 1015.7
20260904155833 91 299 2.0 3.0 0.00 0.00 0.00 65 1015.9
20260904155328 91 318 2.0 3.0 0.00 0.00 0.00 65 1015.9
20260904154826 91 6 1.0 3.0 0.00 0.00 0.00 64 1016.2
20260904154321 91 24 3.0 3.0 0.00 0.00 0.00 64 1016.2
20260904153818 91 294 2.0 3.0 0.00 0.00 0.00 66 1016.3
20260904153313 91 307 1.0 3.0 0.00 0.00 0.00 67 1016.2
20260904152809 91 312 2.0 3.0 0.00 0.00 0.00 67 1016.1
20260904152306 90 295 0.0 2.0 0.00 0.00 0.00 67 1016.2
20260904151759 90 291 1.0 3.0 0.00 0.00 0.00 68 1015.8
20260904151257 90 300 2.0 3.0 0.00 0.00 0.00 71 1016.2
20260904150754 89 9 2.0 4.0 0.00 0.00 0.00 69 1016.2
20260904150248 89 303 2.0 3.0 0.00 0.00 0.00 73 1016.1
20260904145746 89 275 0.0 2.0 0.00 0.00 0.00 74 1016.3
20260904145242 88 214 2.0 2.0 0.00 0.00 0.00 74 1016.1
20260904144737 88 205 0.0 2.0 0.00 0.00 0.00 75 1016.2
20260904144233 88 278 1.0 2.0 0.00 0.00 0.00 75 1015.9
20260904143728 88 224 0.0 1.0 0.00 0.00 0.00 74 1015.9
20260904143225 87 269 0.0 3.0 0.00 0.00 0.00 75 1015.9
20260904142721 87 291 0.0 1.0 0.00 0.00 0.00 76 1015.9
20260904142218 87 229 0.0 2.0 0.00 0.00 0.00 76 1015.8
20260904141717 86 290 1.0 3.0 0.00 0.00 0.00 77 1015.9
20260904141213 86 316 1.0 2.0 0.00 0.00 0.00 78 1015.8
20260904140708 86 256 0.0 2.0 0.00 0.00 0.00 78 1015.6
20260904140203 86 230 0.0 2.0 0.00 0.00 0.00 78 1016.2
20260904135702 85 297 0.0 1.0 0.00 0.00 0.00 78 1015.9
20260904135158 85 291 1.0 2.0 0.00 0.00 0.00 79 1015.8
20260904134653 85 166 1.0 1.0 0.00 0.00 0.00 79 1015.9
20260904134152 84 205 0.0 2.0 0.00 0.00 0.00 79 1015.8
20260904133648 85 326 0.0 3.0 0.00 0.00 0.00 80 1015.8
20260904133144 84 302 0.0 2.0 0.00 0.00 0.00 80 1015.4
20260904132643 85 315 0.0 1.0 0.00 0.00 0.00 79 1015.6
20260904132138 84 300 1.0 1.0 0.00 0.00 0.00 79 1015.6
20260904131637 84 307 1.0 2.0 0.00 0.00 0.00 81 1015.5
20260904131133 83 302 1.0 2.0 0.00 0.00 0.00 81 1015.8
20260904130632 83 212 0.0 3.0 0.00 0.00 0.00 81 1015.6
20260904130127 83 269 0.0 0.0 0.00 0.00 0.00 82 1015.6
20260904125624 82 0 0.0 2.0 0.00 0.00 0.00 82 1015.7
20260904125119 82 217 1.0 2.0 0.00 0.00 0.00 81 1015.7
20260904124614 82 262 0.0 2.0 0.00 0.00 0.00 82 1015.7
20260904124110 81 196 1.0 3.0 0.00 0.00 0.00 83 1015.9
20260904123609 80 207 2.0 2.0 0.00 0.00 0.00 85 1015.9
20260904123106 80 304 0.0 1.0 0.00 0.00 0.00 86 1015.8
20260904122600 80 207 0.0 2.0 0.00 0.00 0.00 85 1015.7
20260904122055 80 311 1.0 1.0 0.00 0.00 0.00 87 1015.5
20260904121550 80 218 0.0 2.0 0.00 0.00 0.00 86 1015.7
20260904121046 80 291 0.0 2.0 0.00 0.00 0.00 87 1015.9
20260904120542 79 241 2.0 3.0 0.00 0.00 0.00 87 1015.7
20260904120037 79 298 0.0 3.0 0.00 0.00 0.00 87 1015.9
20260904115532 79 311 1.0 2.0 0.00 0.00 0.00 88 1015.8
20260904115027 79 273 0.0 2.0 0.00 0.00 0.00 88 1015.8
20260904114521 78 0 0.0 2.0 0.00 0.00 0.00 89 1015.7
20260904114016 78 209 0.0 2.0 0.00 0.00 0.00 90 1015.6
20260904113516 78 220 2.0 3.0 0.00 0.00 0.00 90 1015.7
20260904113010 77 217 0.0 1.0 0.00 0.00 0.00 92 1015.5
20260904112505 76 309 0.0 1.0 0.00 0.00 0.00 94 1015.6
20260904112001 76 315 1.0 1.0 0.00 0.00 0.00 94 1015.6
20260904111456 76 293 0.0 1.0 0.00 0.00 0.00 95 1015.8
20260904110952 76 269 0.0 1.0 0.00 0.00 0.00 95 1015.7
20260904110451 76 344 0.0 1.0 0.00 0.00 0.00 95 1015.5
20260904105940 75 322 0.0 1.0 0.00 0.00 0.00 95 1015.6
20260904105435 75 336 0.0 0.0 0.00 0.00 0.00 95 1015.4
20260904104925 75 322 0.0 0.0 0.00 0.00 0.00 95 1015.5
20260904104424 75 322 0.0 0.0 0.00 0.00 0.00 95 1015.5
20260904103921 75 333 0.0 0.0 0.00 0.00 0.00 95 1015.5
20260904103416 75 310 0.0 1.0 0.00 0.00 0.00 95 1015.6
20260904102913 75 326 0.0 0.0 0.00 0.00 0.00 95 1015.3
20260904102408 75 318 0.0 1.0 0.00 0.00 0.00 94 1015.6
20260904101904 75 313 0.0 1.0 0.00 0.00 0.00 94 1015.4
20260904101400 75 343 0.0 1.0 0.00 0.00 0.00 94 1015.6
20260904100855 75 321 0.0 1.0 0.00 0.00 0.00 93 1015.5
20260904100351 75 343 0.0 0.0 0.00 0.00 0.00 93 1015.5
20260904095845 75 352 0.0 1.0 0.00 0.00 0.00 93 1015.5
20260904095340 75 0 0.0 1.0 0.00 0.00 0.00 92 1015.4
20260904094835 75 6 0.0 1.0 0.00 0.00 0.00 92 1015.5
20260904094330 76 343 0.0 0.0 0.00 0.00 0.00 92 1015.4
20260904093826 76 246 0.0 0.0 0.00 0.00 0.00 92 1015.5
20260904093321 76 303 0.0 1.0 0.00 0.00 0.00 91 1015.5
20260904092816 76 293 0.0 0.0 0.00 0.00 0.00 91 1015.6
20260904092313 76 309 0.0 1.0 0.00 0.00 0.00 90 1015.6
20260904091808 76 322 0.0 0.0 0.00 0.00 0.00 90 1015.7
20260904091303 76 242 0.0 1.0 0.00 0.00 0.00 90 1015.8
20260904090758 76 329 0.0 1.0 0.00 0.00 0.00 89 1015.9
20260904090254 76 297 0.0 1.0 0.00 0.00 0.00 89 1015.7
20260904085749 77 304 0.0 0.0 0.00 0.00 0.00 89 1015.7
20260904085244 77 230 0.0 1.0 0.00 0.00 0.00 89 1015.8
20260904084738 77 309 0.0 1.0 0.00 0.00 0.00 89 1015.9
20260904084234 77 306 1.0 1.0 0.00 0.00 0.00 88 1015.7
20260904083730 77 291 1.0 2.0 0.00 0.00 0.00 88 1016.1
20260904083227 77 304 0.0 1.0 0.00 0.00 0.00 88 1015.8
20260904082727 77 298 1.0 2.0 0.00 0.00 0.00 88 1015.6
20260904082222 77 332 0.0 1.0 0.00 0.00 0.00 87 1015.6
20260904081717 77 293 0.0 0.0 0.00 0.00 0.00 87 1015.4
20260904081213 77 311 0.0 2.0 0.00 0.00 0.00 87 1015.3
20260904080709 77 310 1.0 1.0 0.00 0.00 0.00 87 1015.3
20260904080204 77 326 0.0 1.0 0.00 0.00 0.00 87 1015.3
20260904075700 78 328 1.0 2.0 0.00 0.00 0.00 87 1015.4
20260904075154 78 281 0.0 1.0 0.00 0.00 0.00 87 1015.3
20260904074648 78 297 0.0 1.0 0.00 0.00 0.00 87 1015.4
20260904074143 78 313 1.0 2.0 0.00 0.00 0.00 87 1015.4
20260904073638 78 295 0.0 1.0 0.00 0.00 0.00 86 1015.4
20260904073135 78 324 0.0 1.0 0.00 0.00 0.00 85 1015.3
20260904072630 79 344 0.0 1.0 0.00 0.00 0.00 85 1015.3
20260904072125 79 311 1.0 2.0 0.00 0.00 0.00 85 1015.0
20260904071621 79 316 0.0 1.0 0.00 0.00 0.00 85 1015.2
20260904071115 79 333 0.0 1.0 0.00 0.00 0.00 84 1015.2
20260904070614 79 205 0.0 0.0 0.00 0.00 0.00 84 1014.9
20260904070109 79 322 0.0 1.0 0.00 0.00 0.00 84 1015.0
20260904065604 79 333 0.0 0.0 0.00 0.00 0.00 84 1015.0
20260904065101 80 322 0.0 0.0 0.00 0.00 0.00 83 1015.2
20260904064556 80 22 0.0 0.0 0.00 0.00 0.00 83 1015.2
20260904064055 80 309 1.0 2.0 0.00 0.00 0.00 83 1015.3
20260904063552 80 307 2.0 2.0 0.00 0.00 0.00 82 1015.3
20260904063047 80 299 1.0 2.0 0.00 0.00 0.00 82 1015.4
20260904062543 80 318 0.0 2.0 0.00 0.00 0.00 82 1015.4
20260904062038 81 307 2.0 2.0 0.00 0.00 0.00 81 1015.6
20260904061534 81 133 0.0 2.0 0.00 0.00 0.00 81 1015.5
20260904061031 81 296 1.0 2.0 0.00 0.00 0.00 82 1015.9
20260904060527 81 245 0.0 4.0 0.00 0.00 0.00 83 1015.9
20260904060022 82 296 0.0 2.0 0.00 0.00 0.00 85 1016.3
20260904055517 82 311 3.0 3.0 0.00 0.00 0.00 84 1016.3
20260904055012 82 23 2.0 2.0 0.00 0.00 0.00 84 1016.4
20260904054508 82 309 0.0 9.0 0.00 0.00 0.00 86 1016.3
20260904054004 82 301 1.0 2.0 0.00 0.00 0.00 84 1015.8
20260904053503 82 333 0.0 1.0 0.00 0.00 0.00 83 1015.5
20260904052959 82 304 0.0 2.0 0.00 0.00 0.00 83 1015.3
20260904052455 83 242 0.0 1.0 0.00 0.00 0.00 82 1015.3
20260904051951 83 265 1.0 2.0 0.00 0.00 0.00 81 1015.2
20260904051448 83 212 1.0 2.0 0.00 0.00 0.00 81 1015.3
20260904050946 83 249 1.0 2.0 0.00 0.00 0.00 81 1015.4
20260904050443 83 219 1.0 2.0 0.00 0.00 0.00 81 1015.5
20260904045938 83 309 0.0 2.0 0.00 0.00 0.00 81 1015.7
20260904045432 83 335 0.0 1.0 0.00 0.00 0.00 81 1015.6
20260904044927 83 261 0.0 1.0 0.00 0.00 0.00 82 1015.7
20260904044423 82 315 0.0 1.0 0.00 0.00 0.00 82 1015.7
20260904043919 83 327 0.0 1.0 0.00 0.00 0.00 82 1015.6
20260904043416 83 333 0.0 1.0 0.00 0.00 0.00 82 1015.8
20260904042911 83 306 1.0 1.0 0.00 0.00 0.00 81 1015.6
20260904042407 83 261 0.0 0.0 0.00 0.00 0.00 81 1015.8
20260904041902 83 214 0.0 1.0 0.00 0.00 0.00 80 1015.7
20260904041358 83 231 0.0 1.0 0.00 0.00 0.00 81 1015.7
20260904040854 83 289 0.0 1.0 0.00 0.00 0.00 81 1015.6
20260904040348 84 306 0.0 2.0 0.00 0.00 0.00 80 1015.9
20260904035844 84 303 1.0 1.0 0.00 0.00 0.00 80 1015.7
20260904035341 84 309 0.0 1.0 0.00 0.00 0.00 80 1016.1
20260904034839 84 255 0.0 2.0 0.00 0.00 0.00 80 1015.9
20260904034335 84 304 0.0 1.0 0.00 0.00 0.00 81 1015.6
20260904033831 84 333 0.0 1.0 0.00 0.00 0.00 81 1015.8
20260904033327 84 322 0.0 2.0 0.00 0.00 0.00 81 1015.9
20260904032822 84 254 1.0 1.0 0.00 0.00 0.00 80 1016.2
20260904032317 84 305 1.0 1.0 0.00 0.00 0.00 82 1016.1
20260904031811 84 326 0.0 2.0 0.00 0.00 0.00 82 1016.2
20260904031306 83 315 1.0 1.0 0.00 0.00 0.00 83 1016.2
20260904030802 84 320 1.0 1.0 0.00 0.00 0.00 82 1015.9
20260904030258 84 335 2.0 2.0 0.00 0.00 0.00 82 1016.1
20260904025753 84 326 0.0 2.0 0.00 0.00 0.00 81 1015.9
20260904025248 84 299 0.0 1.0 0.00 0.00 0.00 83 1015.8
20260904024738 84 290 2.0 2.0 0.00 0.00 0.00 82 1015.9
20260904024233 84 293 0.0 1.0 0.00 0.00 0.00 83 1015.9
20260904023730 83 345 0.0 1.0 0.00 0.00 0.00 85 1016.1
20260904023225 83 340 1.0 1.0 0.00 0.00 0.00 85 1015.8